Zurück zum Katalog

CZ-6A DEB

AktivPO
NORAD 61826·DEBRIS·🇨🇳 China

Gestartet Aug 6, 2024 von Taiyuan Satellite Launch Center

Loading…

Nächste Überflüge (nächste 24 Stunden)

TLE

AktuellSource: Space-Track

Epoche: Sep 14, 2026, 07:12 UTC

1 61826U 24140ACS 26257.30024336  .00000639  00000-0  24360-3 0  9993
2 61826  89.0384 267.2822 0019808 154.9708 205.2453 14.29565406104644

Verfolge CZ-6A DEB in Echtzeit mit AllMySat

Download on the App Store